Time,TemperatureF,DewpointF,PressureIn,WindDirection,WindDirectionDegrees,WindSpeedMPH,WindSpeedGustMPH,Humidity,HourlyPrecipIn,Conditions,Clouds,dailyrainin,SoftwareType,DateUTC
2013-03-01 00:00:00,19.9,17.0,30.70,East,98,0.0,0.0,88,0.00,,,0.00,weatherlink.com 1.10,2013-03-01 07:00:00,
2013-03-01 00:15:00,20.0,17.0,30.70,East,90,0.0,0.0,88,0.00,,,0.00,weatherlink.com 1.10,2013-03-01 07:15:00,
2013-03-01 00:30:00,20.4,17.0,30.70,East,90,0.0,0.0,88,0.00,,,0.00,weatherlink.com 1.10,2013-03-01 07:30:00,
2013-03-01 00:45:00,20.6,18.0,30.70,East,89,0.0,0.0,88,0.00,,,0.00,weatherlink.com 1.10,2013-03-01 07:45:00,
2013-03-01 01:00:00,20.6,17.0,30.70,East,89,0.0,0.0,87,0.00,,,0.00,weatherlink.com 1.10,2013-03-01 08:00:00,
2013-03-01 01:15:00,20.3,17.0,30.70,East,89,0.0,0.0,87,0.00,,,0.00,weatherlink.com 1.10,2013-03-01 08:15:00,
2013-03-01 01:30:00,20.4,17.0,30.70,East,89,0.0,0.0,87,0.00,,,0.00,weatherlink.com 1.10,2013-03-01 08:30:00,
2013-03-01 01:45:00,20.4,17.0,30.70,East,89,0.0,0.0,86,0.00,,,0.00,weatherlink.com 1.10,2013-03-01 08:45:00,
2013-03-01 02:00:00,19.7,17.0,30.70,East,89,0.0,0.0,87,0.00,,,0.00,weatherlink.com 1.10,2013-03-01 09:00:00,
2013-03-01 02:16:00,18.6,16.0,30.70,East,89,0.0,0.0,88,0.00,,,0.00,weatherlink.com 1.10,2013-03-01 09:16:00,
2013-03-01 02:31:00,18.7,16.0,30.68,East,89,0.0,0.0,89,0.00,,,0.00,weatherlink.com 1.10,2013-03-01 09:31:00,
2013-03-01 02:46:00,19.2,17.0,30.67,East,89,0.0,0.0,90,0.00,,,0.00,weatherlink.com 1.10,2013-03-01 09:46:00,
2013-03-01 03:01:00,19.0,16.0,30.67,East,89,0.0,0.0,89,0.00,,,0.00,weatherlink.com 1.10,2013-03-01 10:01:00,
2013-03-01 03:16:00,19.1,16.0,30.66,East,89,0.0,0.0,89,0.00,,,0.00,weatherlink.com 1.10,2013-03-01 10:16:00,
2013-03-01 03:31:00,18.8,16.0,30.66,East,89,0.0,0.0,89,0.00,,,0.00,weatherlink.com 1.10,2013-03-01 10:31:00,
2013-03-01 03:46:00,18.6,16.0,30.67,East,89,0.0,0.0,90,0.00,,,0.00,weatherlink.com 1.10,2013-03-01 10:46:00,
2013-03-01 04:01:00,19.2,17.0,30.67,East,89,0.0,0.0,91,0.00,,,0.00,weatherlink.com 1.10,2013-03-01 11:01:00,
2013-03-01 04:16:00,19.5,17.0,30.67,East,89,0.0,0.0,90,0.00,,,0.00,weatherlink.com 1.10,2013-03-01 11:16:00,
2013-03-01 04:31:00,19.1,17.0,30.67,East,89,0.0,0.0,90,0.00,,,0.00,weatherlink.com 1.10,2013-03-01 11:31:00,
2013-03-01 04:46:00,19.1,17.0,30.67,East,89,0.0,0.0,90,0.00,,,0.00,weatherlink.com 1.10,2013-03-01 11:46:00,
2013-03-01 05:01:00,19.1,17.0,30.66,East,89,0.0,0.0,91,0.00,,,0.00,weatherlink.com 1.10,2013-03-01 12:01:00,
2013-03-01 05:16:00,19.4,17.0,30.67,East,89,0.0,0.0,91,0.00,,,0.00,weatherlink.com 1.10,2013-03-01 12:16:00,
2013-03-01 05:31:00,19.5,17.0,30.67,East,89,0.0,0.0,91,0.00,,,0.00,weatherlink.com 1.10,2013-03-01 12:31:00,
2013-03-01 05:46:00,19.3,17.0,30.67,East,89,0.0,0.0,91,0.00,,,0.00,weatherlink.com 1.10,2013-03-01 12:46:00,
2013-03-01 06:01:00,19.5,17.0,30.68,East,89,0.0,0.0,91,0.00,,,0.00,weatherlink.com 1.10,2013-03-01 13:01:00,
2013-03-01 06:16:00,19.7,18.0,30.66,East,89,0.0,0.0,91,0.00,,,0.00,weatherlink.com 1.10,2013-03-01 13:16:00,
2013-03-01 06:31:00,19.9,18.0,30.66,East,89,0.0,0.0,91,0.00,,,0.00,weatherlink.com 1.10,2013-03-01 13:31:00,
2013-03-01 06:46:00,19.9,18.0,30.66,East,89,0.0,0.0,91,0.00,,,0.00,weatherlink.com 1.10,2013-03-01 13:46:00,
2013-03-01 07:01:00,20.0,18.0,30.67,East,89,0.0,0.0,91,0.00,,,0.00,weatherlink.com 1.10,2013-03-01 14:01:00,
2013-03-01 07:16:00,20.1,18.0,30.66,East,89,0.0,0.0,91,0.00,,,0.00,weatherlink.com 1.10,2013-03-01 14:16:00,
2013-03-01 07:31:00,20.3,18.0,30.66,East,90,0.0,0.0,91,0.00,,,0.00,weatherlink.com 1.10,2013-03-01 14:31:00,
2013-03-01 07:46:00,20.8,19.0,30.66,East,90,0.0,0.0,91,0.00,,,0.00,weatherlink.com 1.10,2013-03-01 14:46:00,
2013-03-01 08:01:00,20.5,18.0,30.67,East,90,0.0,0.0,91,0.00,,,0.00,weatherlink.com 1.10,2013-03-01 15:01:00,
2013-03-01 08:16:00,20.8,19.0,30.68,East,90,0.0,0.0,91,0.00,,,0.00,weatherlink.com 1.10,2013-03-01 15:16:00,
2013-03-01 08:31:00,21.1,19.0,30.68,East,89,0.0,0.0,91,0.00,,,0.00,weatherlink.com 1.10,2013-03-01 15:31:00,
2013-03-01 08:46:00,21.8,20.0,30.69,East,89,0.0,0.0,91,0.00,,,0.00,weatherlink.com 1.10,2013-03-01 15:46:00,
2013-03-01 09:01:00,22.8,20.0,30.70,East,89,0.0,0.0,90,0.00,,,0.00,weatherlink.com 1.10,2013-03-01 16:01:00,
2013-03-01 09:16:00,23.0,20.0,30.70,East,93,0.0,1.0,88,0.00,,,0.00,weatherlink.com 1.10,2013-03-01 16:16:00,
2013-03-01 09:31:00,23.1,20.0,30.69,East,93,0.0,0.0,88,0.00,,,0.00,weatherlink.com 1.10,2013-03-01 16:31:00,
2013-03-01 09:46:00,23.4,20.0,30.69,East,93,0.0,0.0,88,0.00,,,0.00,weatherlink.com 1.10,2013-03-01 16:46:00,
2013-03-01 10:01:00,24.1,21.0,30.69,East,96,0.0,0.0,88,0.00,,,0.00,weatherlink.com 1.10,2013-03-01 17:01:00,
2013-03-01 10:16:00,25.1,22.0,30.70,ESE,106,0.0,0.0,87,0.00,,,0.00,weatherlink.com 1.10,2013-03-01 17:16:00,
2013-03-01 10:31:00,25.3,21.0,30.70,ESE,106,0.0,0.0,85,0.01,,,0.01,weatherlink.com 1.10,2013-03-01 17:31:00,
2013-03-01 10:46:00,26.0,22.0,30.70,ESE,106,0.0,0.0,85,0.02,,,0.02,weatherlink.com 1.10,2013-03-01 17:46:00,
2013-03-01 11:01:00,27.1,23.0,30.70,ESE,106,0.0,0.0,84,0.02,,,0.02,weatherlink.com 1.10,2013-03-01 18:01:00,
2013-03-01 11:16:00,29.1,24.0,30.70,ESE,106,0.0,0.0,80,0.03,,,0.03,weatherlink.com 1.10,2013-03-01 18:16:00,
2013-03-01 11:31:00,28.9,24.0,30.70,ESE,106,0.0,0.0,81,0.02,,,0.03,weatherlink.com 1.10,2013-03-01 18:31:00,
2013-03-01 11:46:00,29.3,24.0,30.69,ESE,106,0.0,0.0,81,0.01,,,0.03,weatherlink.com 1.10,2013-03-01 18:46:00,
2013-03-01 12:01:00,30.3,24.0,30.68,ESE,106,0.0,0.0,78,0.01,,,0.03,weatherlink.com 1.10,2013-03-01 19:01:00,
2013-03-01 12:16:00,31.4,25.0,30.67,NNE,13,0.0,3.0,76,0.00,,,0.03,weatherlink.com 1.10,2013-03-01 19:16:00,
2013-03-01 12:31:00,31.9,24.0,30.67,North,352,0.0,0.0,72,0.00,,,0.03,weatherlink.com 1.10,2013-03-01 19:31:00,
2013-03-01 12:46:00,33.2,24.0,30.66,North,352,0.0,0.0,70,0.00,,,0.03,weatherlink.com 1.10,2013-03-01 19:46:00,
2013-03-01 13:02:00,34.1,25.0,30.66,North,350,0.0,0.0,68,0.00,,,0.03,weatherlink.com 1.10,2013-03-01 20:02:00,
2013-03-01 13:17:00,33.2,24.0,30.65,NW,326,0.0,7.0,70,0.00,,,0.03,weatherlink.com 1.10,2013-03-01 20:17:00,
2013-03-01 13:32:00,34.6,25.0,30.63,WNW,298,6.0,10.0,68,0.00,,,0.03,weatherlink.com 1.10,2013-03-01 20:32:00,
2013-03-01 13:47:00,33.7,25.0,30.62,SW,236,3.0,8.0,70,0.01,,,0.04,weatherlink.com 1.10,2013-03-01 20:47:00,
2013-03-01 14:02:00,34.4,24.0,30.62,WNW,293,0.0,8.0,67,0.01,,,0.04,weatherlink.com 1.10,2013-03-01 21:02:00,
2013-03-01 14:17:00,35.2,25.0,30.61,West,259,3.0,9.0,66,0.01,,,0.04,weatherlink.com 1.10,2013-03-01 21:17:00,
2013-03-01 14:32:00,34.4,24.0,30.61,WSW,240,2.0,12.0,67,0.01,,,0.04,weatherlink.com 1.10,2013-03-01 21:32:00,
2013-03-01 14:47:00,35.0,25.0,30.60,WNW,284,6.0,9.0,66,0.00,,,0.04,weatherlink.com 1.10,2013-03-01 21:47:00,
2013-03-01 15:02:00,34.1,25.0,30.60,WSW,250,2.0,6.0,69,0.00,,,0.04,weatherlink.com 1.10,2013-03-01 22:02:00,
2013-03-01 15:17:00,34.8,24.0,30.61,West,271,9.0,9.0,66,0.00,,,0.04,weatherlink.com 1.10,2013-03-01 22:17:00,
2013-03-01 15:32:00,34.6,23.0,30.61,WNW,301,4.0,11.0,64,0.00,,,0.04,weatherlink.com 1.10,2013-03-01 22:32:00,
2013-03-01 15:47:00,36.1,24.0,30.61,West,269,8.0,13.0,63,0.00,,,0.04,weatherlink.com 1.10,2013-03-01 22:47:00,
2013-03-01 16:02:00,33.8,23.0,30.61,West,277,8.0,12.0,65,0.00,,,0.04,weatherlink.com 1.10,2013-03-01 23:02:00,
2013-03-01 16:17:00,33.5,24.0,30.61,West,264,10.0,11.0,67,0.00,,,0.04,weatherlink.com 1.10,2013-03-01 23:17:00,
2013-03-01 16:32:00,34.2,23.0,30.62,NW,309,1.0,9.0,65,0.00,,,0.04,weatherlink.com 1.10,2013-03-01 23:32:00,
2013-03-01 16:47:00,33.5,23.0,30.61,WSW,257,6.0,12.0,66,0.00,,,0.04,weatherlink.com 1.10,2013-03-01 23:47:00,
2013-03-01 17:02:00,34.4,24.0,30.62,West,262,0.0,8.0,65,0.00,,,0.04,weatherlink.com 1.10,2013-03-02 00:02:00,
2013-03-01 17:17:00,33.9,23.0,30.61,West,266,0.0,9.0,65,0.00,,,0.04,weatherlink.com 1.10,2013-03-02 00:17:00,
2013-03-01 17:32:00,34.0,23.0,30.61,West,267,0.0,3.0,64,0.00,,,0.04,weatherlink.com 1.10,2013-03-02 00:32:00,
2013-03-01 17:47:00,32.6,22.0,30.61,West,267,0.0,2.0,66,0.00,,,0.04,weatherlink.com 1.10,2013-03-02 00:47:00,
2013-03-01 18:02:00,30.6,22.0,30.61,West,267,0.0,0.0,69,0.00,,,0.04,weatherlink.com 1.10,2013-03-02 01:02:00,
2013-03-01 18:17:00,29.2,21.0,30.62,West,267,0.0,0.0,72,0.00,,,0.04,weatherlink.com 1.10,2013-03-02 01:17:00,
2013-03-01 18:32:00,29.6,21.0,30.62,West,267,0.0,0.0,71,0.00,,,0.04,weatherlink.com 1.10,2013-03-02 01:32:00,
2013-03-01 18:47:00,29.2,21.0,30.63,East,97,0.0,0.0,71,0.00,,,0.04,weatherlink.com 1.10,2013-03-02 01:47:00,
2013-03-01 19:02:00,29.3,21.0,30.63,East,93,0.0,0.0,72,0.00,,,0.04,weatherlink.com 1.10,2013-03-02 02:02:00,
2013-03-01 19:18:00,28.7,21.0,30.62,East,84,2.0,3.0,74,0.00,,,0.04,weatherlink.com 1.10,2013-03-02 02:18:00,
2013-03-01 19:32:00,29.4,21.0,30.63,ENE,75,2.0,5.0,72,0.00,,,0.04,weatherlink.com 1.10,2013-03-02 02:32:00,
2013-03-01 19:47:00,29.5,22.0,30.63,ENE,75,0.0,0.0,73,0.00,,,0.04,weatherlink.com 1.10,2013-03-02 02:47:00,
2013-03-01 20:02:00,30.0,22.0,30.63,ENE,75,0.0,0.0,72,0.00,,,0.04,weatherlink.com 1.10,2013-03-02 03:02:00,
2013-03-01 20:17:00,29.9,22.0,30.63,ENE,75,0.0,0.0,72,0.00,,,0.04,weatherlink.com 1.10,2013-03-02 03:17:00,
2013-03-01 20:32:00,30.0,22.0,30.64,ENE,75,0.0,0.0,71,0.00,,,0.04,weatherlink.com 1.10,2013-03-02 03:32:00,
2013-03-01 20:47:00,29.4,22.0,30.64,ENE,75,0.0,2.0,73,0.00,,,0.04,weatherlink.com 1.10,2013-03-02 03:47:00,
2013-03-01 21:02:00,29.4,22.0,30.64,ENE,73,0.0,0.0,74,0.00,,,0.04,weatherlink.com 1.10,2013-03-02 04:02:00,
2013-03-01 21:17:00,28.8,22.0,30.64,ENE,73,0.0,0.0,74,0.00,,,0.04,weatherlink.com 1.10,2013-03-02 04:17:00,
2013-03-01 21:32:00,29.3,22.0,30.64,ENE,75,0.0,0.0,73,0.00,,,0.04,weatherlink.com 1.10,2013-03-02 04:32:00,
2013-03-01 21:47:00,29.3,22.0,30.64,ENE,75,0.0,0.0,74,0.00,,,0.04,weatherlink.com 1.10,2013-03-02 04:47:00,
2013-03-01 22:02:00,29.2,22.0,30.64,ENE,75,0.0,0.0,73,0.00,,,0.04,weatherlink.com 1.10,2013-03-02 05:02:00,
2013-03-01 22:17:00,29.3,21.0,30.63,ENE,75,0.0,0.0,72,0.00,,,0.04,weatherlink.com 1.10,2013-03-02 05:17:00,
2013-03-01 22:32:00,29.6,21.0,30.62,ENE,75,0.0,0.0,71,0.00,,,0.04,weatherlink.com 1.10,2013-03-02 05:32:00,
2013-03-01 22:47:00,29.6,21.0,30.62,ENE,75,0.0,0.0,71,0.00,,,0.04,weatherlink.com 1.10,2013-03-02 05:47:00,
2013-03-01 23:02:00,29.4,21.0,30.63,ENE,75,0.0,0.0,72,0.00,,,0.04,weatherlink.com 1.10,2013-03-02 06:02:00,
2013-03-01 23:17:00,29.0,21.0,30.63,ENE,75,0.0,0.0,73,0.00,,,0.04,weatherlink.com 1.10,2013-03-02 06:17:00,
2013-03-01 23:32:00,29.0,21.0,30.63,ENE,75,0.0,0.0,73,0.00,,,0.04,weatherlink.com 1.10,2013-03-02 06:32:00,
2013-03-01 23:47:00,29.3,21.0,30.63,ENE,75,0.0,0.0,71,0.00,,,0.04,weatherlink.com 1.10,2013-03-02 06:47:00,